CST,Max TemperatureF,Mean TemperatureF,Min TemperatureF,Max Dew PointF,MeanDew PointF,Min DewpointF,Max Humidity, Mean Humidity, Min Humidity, Max Sea Level PressureIn, Mean Sea Level PressureIn, Min Sea Level PressureIn, Max VisibilityMiles, Mean VisibilityMiles, Min VisibilityMiles, Max Wind SpeedMPH, Mean Wind SpeedMPH, Max Gust SpeedMPH,PrecipitationIn, CloudCover, Events, WindDirDegrees
2014-1-1,62,42,21,30,23,18,93,56,18,30.26,30.16,30.09,10,10,10,20,7,28,0.00,0,,317
2014-1-2,55,39,23,27,22,18,86,55,24,30.44,30.35,30.28,10,10,10,20,11,25,0.00,0,,53
2014-1-3,60,40,19,30,23,16,93,62,29,30.31,30.17,30.05,10,10,10,20,7,26,0.00,0,,214
2014-1-4,64,45,26,34,28,21,93,51,28,30.05,29.99,29.93,10,10,10,25,10,31,0.00,0,,234
2014-1-5,51,38,26,25,21,14,80,54,30,30.28,30.14,29.95,10,10,10,17,7,21,0.00,0,,27
2014-1-6,35,24,14,18,13,9,80,61,38,30.45,30.36,30.27,10,10,10,24,6,,0.00,0,,52
2014-1-7,55,34,12,36,21,9,93,69,34,30.35,30.25,30.14,10,10,10,18,7,24,0.00,0,,218
2014-1-8,60,42,23,37,29,21,93,68,31,30.19,30.13,30.08,10,10,10,16,5,18,0.00,0,,336
2014-1-9,66,45,24,36,26,21,100,59,20,30.18,30.10,30.01,10,10,9,17,6,21,0.00,1,,314
2014-1-10,60,46,33,36,27,18,66,42,20,30.12,30.02,29.96,10,10,9,32,14,40,0.00,2,,266
2014-1-11,66,46,26,21,18,12,74,38,14,30.29,30.20,30.12,10,10,10,15,7,26,0.00,0,,256
2014-1-12,71,48,24,25,18,14,74,40,14,30.16,30.07,29.97,10,10,10,23,7,30,0.00,0,,312
2014-1-13,57,42,28,18,7,-2,41,24,10,30.33,30.23,30.10,10,10,10,21,9,26,0.00,0,,291
2014-1-14,60,44,26,16,8,1,59,25,12,30.42,30.27,30.18,10,10,10,24,11,28,0.00,0,,332
2014-1-15,59,39,19,25,16,10,93,49,16,30.45,30.34,30.19,10,10,10,15,7,21,0.00,0,,290
2014-1-16,62,43,24,18,13,9,64,33,14,30.25,30.17,30.11,10,10,10,20,7,24,0.00,0,,333
2014-1-17,57,39,21,23,18,12,80,48,23,30.35,30.26,30.21,10,10,10,10,7,,0.00,0,,28
2014-1-18,64,42,19,23,15,10,86,44,13,30.33,30.22,30.17,10,10,10,17,8,23,0.00,0,,348
2014-1-19,64,42,21,19,14,9,74,35,12,30.38,30.29,30.21,10,10,10,16,8,20,0.00,0,,300
2014-1-20,66,48,30,18,12,7,51,27,11,30.42,30.21,30.14,10,10,10,28,10,32,0.00,0,,309
2014-1-21,57,40,24,18,13,7,59,33,17,30.51,30.40,30.27,10,10,10,16,9,20,0.00,0,,57
2014-1-22,68,44,21,18,14,7,58,33,14,30.27,30.11,30.00,10,10,7,15,4,20,0.00,2,,349
2014-1-23,42,30,19,19,14,-6,59,46,33,30.53,30.26,30.03,10,10,10,25,13,31,0.00,3,,29
2014-1-24,50,32,15,21,6,-8,60,35,27,30.53,30.44,30.35,10,10,10,20,10,24,0.00,2,,258
2014-1-25,62,48,35,28,17,9,52,33,15,30.35,30.25,30.14,10,10,10,15,7,20,0.00,3,,243
2014-1-26,66,48,30,37,30,18,70,51,32,30.14,30.04,29.95,10,10,8,34,11,44,0.00,0,,264
2014-1-27,50,38,26,30,22,14,75,52,36,30.21,30.08,30.01,10,10,4,26,10,33,0.00,2,,1
2014-1-28,35,25,15,21,4,-8,74,42,22,30.28,30.17,30.04,10,10,10,18,9,23,0.00,0,,34
2014-1-29,57,32,8,18,7,-8,73,41,20,30.27,30.17,30.08,10,10,10,15,6,21,0.00,0,,223
2014-1-30,71,46,21,25,17,7,64,38,16,30.07,30.01,29.95,10,10,10,22,7,28,0.00,0,,264
2014-1-31,73,52,30,28,24,18,64,39,18,30.03,29.94,29.87,10,10,10,14,6,20,0.00,0,,296